Temperature
19 18 17 18 19 20 19 19 20 20 20 19 18 18 19 19 18 18 19 19 19 19 19 18 18 17 17 16 16 15 14 14 14 13 13 13 13 12 12 12 12 12 12 12
18 18 19 19 19 19 19 19 20 20 20 19 18 18 18 18 18 19 19 19 20 19 19 18 18 17 17 16 16 15 14 14 13 13 13 13 12 12 12 12 12 12 12 12
18 19 20 20 19 19 19 19 20 20 20 19 19 19 18 18 18 19 19 20 20 20 19 18 18 17 17 16 15 15 14 14 13 13 13 12 12 12 12 12 12 12 12 12
19 19 20 20 19 19 19 20 20 20 19 18 19 17 18 17 18 17 18 19 20 20 19 18 18 17 17 16 15 15 14 13 13 13 13 12 12 12 12 12 12 12 12 12
19 19 20 20 20 20 20 20 19 19 19 17 17 17 17 17 18 17 17 19 20 20 19 19 18 17 17 16 15 15 14 14 13 13 13 12 12 12 12 11 12 11 11 11
19 20 20 20 20 20 19 18 17 15 16 17 18 17 17 16 17 17 17 19 20 20 19 19 18 17 16 16 15 15 14 14 13 13 13 12 12 12 12 12 11 11 11 11
19 20 20 20 20 20 19 18 17 18 16 16 17 17 16 17 17 17 18 19 20 20 19 19 18 17 17 16 15 15 14 14 14 13 13 12 12 12 12 12 11 11 11 11
19 19 20 20 20 19 19 18 17 18 17 16 17 16 16 17 18 18 19 20 20 20 19 19 18 17 17 16 15 15 15 14 14 13 13 13 13 12 12 12 12 11 11 11
18 19 21 21 20 19 18 17 17 16 16 17 16 16 17 18 18 18 18 19 20 20 19 19 18 18 17 16 16 15 15 14 14 14 13 13 13 13 12 12 12 11 11 11
19 19 20 21 20 18 18 15 14 15 16 17 17 17 16 18 18 18 17 18 20 20 19 19 18 18 17 16 16 15 15 14 14 14 14 13 13 13 12 12 12 12 12 11
19 19 20 20 21 20 18 17 14 13 14 15 16 16 17 17 17 16 17 19 20 20 20 19 18 18 17 16 16 15 15 15 14 14 14 14 13 13 13 12 12 12 12 12
18 17 18 19 20 19 19 17 15 16 16 14 14 15 17 16 16 17 19 20 20 20 20 19 19 18 17 17 16 16 15 15 15 14 14 14 14 13 13 13 13 12 12 12
17 17 18 18 18 19 19 17 16 14 13 12 14 16 17 17 17 18 19 20 20 20 20 19 18 18 17 17 16 16 16 15 15 15 14 14 14 14 13 13 13 13 13 12
17 17 18 19 18 18 19 18 15 15 14 13 14 16 17 18 17 18 19 20 20 20 20 19 19 18 18 17 17 16 16 16 15 15 15 14 14 14 14 14 13 13 13 13
18 18 18 18 18 19 19 18 16 16 15 15 16 15 17 17 17 19 20 20 20 20 20 19 19 18 18 17 17 17 16 16 16 15 15 15 14 14 14 14 13 13 13 13
16 18 18 19 19 18 18 18 17 16 16 15 16 16 16 17 18 18 19 20 20 20 20 19 19 18 18 18 17 17 17 16 16 16 15 15 15 14 14 14 14 13 13 13
15 16 17 17 17 19 18 18 17 17 16 16 17 17 17 17 16 19 20 20 21 21 20 20 19 19 18 18 17 17 17 16 16 16 16 15 15 15 14 14 14 14 13 13
15 15 14 15 18 18 18 18 18 18 17 16 17 17 16 17 21 22 22 22 21 21 20 20 19 19 18 18 17 17 17 17 16 16 16 15 15 15 14 14 14 14 14 13
14 14 13 14 16 16 17 18 18 18 18 17 17 17 18 18 18 19 21 22 21 21 20 20 19 18 18 18 17 17 17 16 16 16 16 15 15 15 14 14 14 14 13 13
13 13 13 13 17 17 18 19 19 18 19 19 17 17 16 16 16 18 22 22 21 20 20 19 19 18 18 17 17 17 17 16 16 16 16 15 15 14 14 14 13 13 13 13
15 14 14 13 15 16 17 18 19 19 19 21 20 19 17 17 20 23 22 21 21 20 19 19 18 18 18 17 17 17 17 16 16 16 15 15 14 14 14 13 13 13 13 13
15 14 13 12 14 16 18 17 18 19 21 21 21 21 20 22 22 22 22 21 20 20 19 19 18 18 17 17 17 17 16 16 16 15 15 14 14 13 13 13 13 12 12 12
13 14 13 14 16 17 18 19 21 21 21 22 22 23 22 21 21 22 21 21 20 20 19 18 18 17 17 17 16 16 16 15 15 15 14 14 13 13 13 12 12 12 12 12
14 13 13 13 14 17 19 20 21 21 21 22 22 23 22 22 22 21 21 21 20 19 19 18 17 17 17 16 16 16 15 15 15 14 14 13 13 12 12 11 11 11 11 11
14 13 13 14 14 17 21 22 21 21 22 22 22 23 23 22 22 22 21 21 20 19 18 18 17 17 16 16 16 15 15 14 14 14 13 12 12 11 11 11 10 10 10 10
13 14 14 15 17 16 18 21 21 21 21 22 22 22 22 22 22 22 21 21 20 19 18 17 17 16 16 16 15 15 14 14 13 13 12 12 11 10 10 10 9 9 9 9
Wind_Speed
5 5 7 10 9 6 6 5 5 6 4 6 8 10 9 5 8 9 8 8 8 8 5 5 5 5 4 3 2 2 1 1 1 1 2 2 3 3 3 4 6 6 7 6
5 5 8 7 6 4 5 4 5 4 2 5 5 8 8 6 9 9 10 10 9 6 5 5 5 5 4 4 3 2 3 2 1 1 1 1 2 3 3 3 5 6 6 6
7 5 7 7 6 6 5 7 6 4 2 2 1 7 6 3 4 5 6 7 7 8 9 7 7 6 5 5 5 4 4 3 2 1 1 2 2 3 4 4 4 5 6 5
4 3 6 6 6 8 6 7 5 4 3 2 0 4 7 4 3 5 7 7 8 7 7 7 8 7 7 6 5 5 5 4 3 1 0 0 1 2 3 3 4 6 5 5
4 5 6 6 7 8 4 3 4 3 3 2 1 2 8 3 5 8 8 8 8 8 9 9 9 9 7 6 5 5 4 4 3 2 1 1 1 2 3 3 5 5 5 5
1 1 4 5 1 4 5 7 7 6 5 2 4 5 7 5 7 6 6 8 9 9 8 8 7 6 5 4 4 4 4 5 4 3 2 2 3 3 4 4 5 5 4 4
3 2 0 3 5 4 5 6 4 4 3 5 3 4 9 7 7 7 8 9 9 9 8 8 8 7 7 7 6 5 5 5 4 3 3 3 3 3 3 4 4 4 4 4
3 2 3 3 5 6 5 8 7 5 5 5 2 6 8 6 4 4 5 6 7 8 8 9 9 9 8 8 7 6 6 6 5 4 4 3 3 3 3 3 3 4 3 4
5 3 1 1 2 8 7 4 6 6 2 2 6 7 8 2 0 2 4 5 8 9 9 9 9 8 8 8 8 8 7 7 6 5 4 4 3 3 3 3 3 3 3 4
6 3 1 1 6 5 5 9 6 5 4 3 7 6 5 7 7 5 6 8 9 7 7 8 8 8 8 8 7 6 7 7 6 5 4 4 4 3 3 3 3 4 4 4
4 4 1 1 4 6 5 5 6 5 5 5 4 8 7 8 9 9 10 9 9 9 9 8 8 7 7 6 6 6 6 6 6 5 5 4 4 3 3 3 4 4 4 4
4 5 1 4 3 3 6 8 8 5 4 5 4 8 7 8 8 8 9 8 7 8 7 7 7 6 5 6 6 6 6 6 6 5 4 5 4 3 3 4 4 4 4 4
6 5 3 5 5 1 3 5 5 6 6 6 5 8 5 2 5 7 8 8 6 7 7 5 5 6 7 7 6 6 6 7 6 4 5 5 4 4 5 5 4 4 4 4
5 4 6 8 8 6 5 6 6 7 5 6 9 10 8 6 7 8 8 8 6 7 7 7 6 7 7 6 6 6 7 6 5 5 5 5 5 5 5 5 4 4 4 4
4 4 6 7 6 4 6 7 8 9 10 10 10 10 12 11 11 10 8 7 7 7 7 8 8 7 6 6 6 6 6 5 4 4 5 6 5 5 5 5 5 4 4 4
3 4 3 4 4 5 6 8 10 10 7 9 8 10 12 8 5 6 8 9 9 9 9 9 8 7 7 7 6 5 5 4 4 4 5 4 4 4 4 5 5 5 5 4
4 6 4 5 5 2 7 10 11 8 9 10 12 14 7 6 10 12 11 11 11 11 10 9 9 8 8 7 6 6 5 3 3 3 3 3 3 4 4 4 4 5 5 4
7 6 4 2 1 7 10 5 8 9 10 12 11 9 10 12 10 8 9 11 11 10 10 9 8 7 6 5 5 4 3 3 3 2 2 3 3 4 4 4 5 5 4 4
6 8 5 4 3 8 10 7 7 8 10 10 13 12 7 4 3 3 8 10 11 10 9 8 8 7 6 6 5 5 4 3 2 1 3 3 2 3 3 4 5 4 3 4
5 5 6 4 4 6 10 5 4 5 7 8 11 11 8 10 5 8 8 9 9 8 7 7 7 6 6 5 6 7 5 3 2 2 2 2 2 2 3 4 4 3 3 4
3 3 5 6 6 9 10 4 6 4 8 5 7 9 12 13 10 6 8 9 9 8 7 8 8 7 6 6 8 7 5 3 2 1 0 1 1 1 2 3 2 3 3 3
8 6 6 6 5 9 5 6 8 8 5 4 5 8 12 11 5 6 9 10 11 9 8 9 9 7 5 6 8 7 5 2 2 2 3 3 3 2 2 2 3 3 2 2
7 8 7 9 9 6 3 8 8 4 6 6 5 6 9 8 7 8 9 10 10 10 10 8 9 8 5 5 7 8 4 3 4 4 3 3 3 4 3 3 3 3 3 2
5 3 3 6 10 9 10 9 8 7 8 8 7 6 9 9 9 9 10 10 10 9 10 9 10 10 6 5 5 6 5 5 6 5 3 3 4 4 4 4 3 3 3 3
5 3 3 7 10 11 10 7 7 7 8 8 7 7 10 10 9 11 11 12 12 10 9 10 11 10 9 7 6 5 5 7 7 5 4 3 3 3 4 4 3 3 3 3
6 7 7 9 10 7 12 12 9 9 10 10 7 7 7 10 12 12 12 12 12 12 10 10 10 10 9 8 7 5 5 7 7 5 4 3 3 3 3 3 4 6 5 9
Wind_Direction
131 121 171 189 186 176 176 189 227 247 203 180 225 254 267 208 202 213 216 215 219 223 223 187 169 156 144 144 155 171 197 281 344 360 350 346 337 331 340 344 350 354 355 355
106 192 199 176 173 152 165 198 239 270 199 190 246 271 273 218 210 210 210 213 215 205 188 177 169 163 171 180 192 202 226 250 263 268 267 263 285 298 298 313 336 350 354 353
155 202 161 147 160 164 191 201 212 213 76 66 344 308 293 280 220 205 200 201 198 196 193 188 182 187 189 202 208 210 225 239 253 278 359 4 360 346 344 338 336 335 341 345
159 188 150 154 179 167 221 221 189 157 116 288 94 281 290 293 253 217 205 196 197 197 190 190 191 196 205 215 216 219 229 242 252 251 47 24 350 312 292 299 306 319 334 340
186 171 153 178 202 178 194 75 110 100 130 3 346 195 286 307 251 241 221 210 206 200 194 196 199 203 210 213 214 221 234 249 254 247 232 242 283 275 295 308 320 330 332 335
132 201 168 180 117 140 120 73 59 53 72 310 237 181 278 240 225 235 216 208 205 199 199 205 206 202 216 220 221 222 233 253 256 254 252 243 268 293 316 325 329 329 327 330
35 358 332 129 99 71 97 93 37 355 2 255 260 205 251 262 242 223 210 205 201 196 194 199 202 206 216 221 224 224 231 252 261 257 260 255 261 272 283 297 307 317 323 321
123 265 233 187 171 162 155 139 158 204 233 280 297 237 257 268 274 229 204 193 189 195 198 203 207 208 215 222 224 224 231 248 258 256 263 266 262 260 268 278 285 297 295 295
155 231 304 168 144 130 132 153 156 132 167 281 285 286 301 235 167 150 163 175 197 206 206 210 212 212 218 224 225 222 228 243 254 253 259 268 266 262 271 284 290 295 299 303
150 165 302 136 85 42 137 139 107 120 155 263 296 284 256 242 228 218 209 211 220 216 212 214 215 217 221 226 230 227 225 236 248 250 251 256 260 263 270 287 302 306 310 316
131 139 347 63 187 176 120 105 107 112 146 159 271 278 234 228 216 213 221 221 219 214 212 212 215 217 220 225 228 229 230 235 245 247 250 260 269 273 275 278 287 295 302 314
143 122 179 259 272 199 172 167 149 154 199 172 186 269 271 249 231 216 223 227 220 214 211 210 211 209 215 224 228 229 231 233 240 242 246 255 264 271 275 279 286 290 295 303
140 117 76 348 340 318 184 166 156 129 124 157 179 261 295 289 229 224 227 230 220 210 205 203 202 208 218 225 229 233 233 236 240 236 244 257 262 262 266 274 285 290 291 297
119 127 169 203 224 209 210 185 158 139 160 199 218 246 283 261 236 231 225 222 210 205 200 199 208 218 222 226 229 234 241 236 233 228 236 250 255 255 262 271 278 281 283 288
121 181 219 237 237 204 223 214 184 192 195 199 228 227 246 237 224 224 215 205 196 201 203 205 210 217 220 227 234 236 243 239 222 219 236 249 258 261 265 270 273 276 279 281
123 176 194 276 270 225 246 243 211 217 216 221 241 253 245 242 212 215 209 196 200 206 206 206 206 206 212 218 224 225 234 232 201 212 240 256 265 269 270 272 274 278 281 283
150 147 152 258 299 353 268 236 209 209 207 192 219 238 227 202 209 212 206 199 204 206 202 201 201 202 208 210 208 212 222 207 190 218 249 261 263 271 275 281 285 281 280 280
151 142 153 208 20 248 247 245 208 218 236 211 222 231 208 211 217 215 197 194 203 202 199 200 197 198 202 199 193 190 174 171 185 220 258 272 271 277 288 294 289 286 281 277
153 142 136 147 219 275 290 268 193 201 261 223 219 231 217 182 110 269 214 197 200 196 192 192 187 181 176 177 170 149 145 146 156 235 270 277 268 274 289 292 289 287 288 289
81 110 128 145 189 249 255 258 179 144 275 253 206 211 171 136 170 240 209 187 190 182 172 166 156 148 154 163 147 139 143 142 179 241 268 285 273 265 279 284 288 288 282 287
118 114 158 179 215 259 255 258 133 166 249 273 201 190 169 183 203 207 162 169 169 162 157 148 143 145 155 149 138 137 139 162 207 227 23 10 344 298 292 305 303 300 304 316
188 179 192 159 190 253 249 144 178 223 265 273 218 192 191 207 187 152 161 162 155 150 146 145 141 138 136 142 140 138 152 173 129 102 74 38 18 10 9 350 340 337 337 345
204 195 191 192 216 243 231 218 245 255 265 260 236 223 197 195 191 178 170 164 160 156 153 148 141 132 125 137 143 145 160 142 119 98 74 42 31 23 15 20 12 12 17 19
265 181 184 253 271 271 268 256 255 243 249 261 244 223 191 196 191 179 171 167 162 158 156 149 143 140 140 138 136 145 144 132 116 103 80 56 48 32 24 30 36 43 32 27
248 183 235 265 281 302 299 273 277 283 272 267 252 221 203 193 189 182 179 176 171 163 158 155 154 151 151 144 136 137 137 128 116 106 89 67 55 46 35 37 43 47 43 65
215 211 228 255 260 261 280 291 299 288 276 262 249 240 215 197 195 184 183 178 170 164 158 156 153 150 150 145 139 138 138 133 126 116 101 84 69 55 51 49 37 33 43 49
Height
1492 1500 1506 1505 1504 1506 1511 1515 1516 1511 1505 1510 1512 1510 1506 1507 1508 1509 1510 1512 1513 1515 1517 1519 1520 1521 1522 1522 1521 1520 1519 1517 1515 1513 1511 1510 1508 1506 1505 1503 1501 1500 1498 1497
1497 1501 1497 1498 1502 1506 1510 1514 1514 1509 1505 1509 1511 1510 1505 1504 1504 1504 1506 1509 1511 1513 1515 1516 1518 1519 1520 1521 1520 1519 1518 1516 1515 1513 1511 1509 1507 1506 1504 1503 1501 1499 1498 1496
1496 1496 1494 1498 1503 1507 1510 1512 1510 1510 1508 1509 1512 1513 1506 1502 1501 1503 1504 1506 1509 1511 1512 1515 1516 1518 1519 1520 1519 1518 1517 1516 1514 1512 1511 1509 1507 1506 1504 1502 1500 1499 1497 1495
1493 1491 1493 1498 1502 1504 1510 1502 1503 1507 1515 1522 1517 1530 1512 1505 1502 1501 1502 1504 1506 1509 1511 1513 1515 1517 1518 1518 1518 1517 1516 1515 1514 1512 1511 1509 1507 1505 1503 1502 1500 1498 1496 1495
1493 1491 1493 1498 1497 1498 1501 1500 1504 1509 1515 1524 1522 1528 1519 1506 1504 1501 1499 1501 1504 1506 1509 1511 1513 1515 1516 1517 1517 1517 1516 1515 1513 1512 1510 1509 1507 1505 1503 1501 1500 1498 1496 1494
1490 1489 1490 1493 1493 1496 1500 1505 1512 1519 1525 1534 1523 1529 1523 1510 1502 1497 1496 1498 1501 1504 1507 1510 1512 1514 1515 1516 1516 1515 1515 1514 1513 1511 1510 1508 1507 1505 1503 1501 1499 1497 1496 1494
1495 1492 1490 1490 1496 1499 1502 1515 1532 1533 1541 1537 1522 1524 1518 1500 1496 1494 1493 1495 1498 1502 1505 1508 1510 1512 1513 1514 1514 1514 1514 1513 1512 1511 1509 1508 1506 1504 1503 1501 1499 1497 1495 1493
1502 1504 1492 1490 1493 1499 1504 1511 1531 1539 1542 1535 1522 1524 1509 1495 1492 1491 1492 1494 1497 1500 1503 1505 1508 1510 1511 1512 1513 1513 1513 1512 1511 1510 1509 1507 1506 1504 1502 1500 1498 1496 1494 1493
1501 1502 1490 1489 1490 1495 1506 1511 1513 1528 1531 1535 1528 1517 1501 1492 1491 1491 1492 1493 1495 1498 1501 1503 1506 1508 1509 1510 1511 1511 1511 1511 1510 1509 1508 1506 1505 1503 1501 1500 1498 1496 1494 1492
1491 1500 1493 1490 1491 1496 1499 1508 1520 1529 1537 1540 1530 1521 1512 1496 1492 1491 1491 1492 1494 1497 1499 1501 1504 1506 1507 1509 1509 1510 1510 1509 1509 1508 1507 1505 1504 1502 1501 1499 1497 1496 1494 1492
1488 1498 1497 1493 1495 1498 1504 1509 1518 1529 1531 1540 1539 1525 1496 1491 1488 1489 1489 1490 1492 1494 1497 1499 1501 1503 1505 1507 1507 1508 1508 1508 1507 1507 1506 1504 1503 1502 1500 1498 1497 1495 1493 1491
1489 1499 1505 1498 1492 1491 1494 1501 1511 1522 1527 1533 1536 1523 1487 1486 1485 1485 1486 1488 1490 1492 1495 1497 1499 1501 1503 1504 1505 1506 1506 1506 1506 1505 1504 1503 1502 1501 1499 1498 1496 1494 1493 1491
1488 1499 1510 1508 1504 1496 1494 1498 1503 1512 1523 1534 1534 1516 1485 1483 1483 1483 1485 1486 1488 1490 1492 1495 1497 1499 1500 1502 1503 1504 1504 1504 1504 1504 1503 1502 1501 1500 1498 1497 1495 1494 1492 1490
1484 1495 1504 1509 1504 1495 1495 1497 1502 1508 1520 1525 1520 1505 1489 1483 1482 1481 1482 1483 1485 1487 1490 1492 1494 1496 1498 1499 1501 1501 1502 1502 1502 1502 1501 1500 1499 1498 1497 1496 1494 1493 1491 1489
1483 1493 1492 1492 1489 1490 1490 1491 1497 1500 1501 1507 1501 1498 1485 1479 1477 1477 1478 1480 1483 1485 1487 1489 1491 1493 1495 1497 1498 1499 1500 1500 1500 1500 1499 1499 1498 1497 1496 1494 1493 1492 1490 1488
1484 1489 1490 1490 1486 1488 1490 1487 1489 1491 1491 1493 1491 1488 1473 1472 1473 1474 1475 1477 1479 1481 1483 1486 1488 1490 1492 1494 1495 1496 1497 1498 1498 1498 1497 1497 1496 1495 1494 1493 1491 1490 1489 1487
1486 1490 1496 1499 1491 1488 1493 1481 1481 1482 1479 1481 1484 1474 1467 1469 1469 1468 1470 1472 1474 1477 1480 1482 1485 1487 1489 1491 1493 1494 1495 1495 1495 1495 1495 1494 1494 1493 1492 1490 1489 1488 1486 1485
1485 1491 1498 1500 1494 1500 1482 1466 1467 1470 1468 1467 1464 1461 1461 1461 1461 1463 1466 1468 1471 1474 1477 1479 1482 1484 1487 1489 1490 1491 1492 1493 1493 1493 1493 1492 1491 1490 1489 1488 1486 1485 1484 1482
1478 1487 1499 1504 1501 1494 1476 1464 1464 1467 1464 1455 1456 1454 1456 1458 1461 1461 1462 1465 1468 1471 1474 1476 1479 1481 1484 1486 1487 1489 1490 1490 1490 1490 1490 1489 1488 1487 1486 1485 1484 1482 1481 1480
1480 1483 1494 1502 1497 1496 1475 1458 1456 1461 1463 1447 1447 1449 1452 1457 1465 1458 1457 1461 1464 1468 1471 1473 1476 1478 1481 1483 1485 1486 1487 1487 1488 1488 1487 1486 1485 1484 1483 1482 1480 1479 1478 1477
1484 1488 1493 1498 1497 1485 1461 1455 1458 1470 1463 1444 1443 1443 1447 1449 1449 1450 1453 1457 1461 1464 1467 1470 1473 1475 1478 1480 1482 1483 1484 1485 1485 1485 1484 1483 1482 1481 1480 1479 1477 1476 1475 1474
1481 1487 1491 1495 1495 1484 1453 1455 1458 1454 1445 1443 1441 1441 1442 1442 1445 1448 1450 1454 1457 1461 1464 1467 1470 1473 1475 1477 1479 1480 1481 1482 1482 1482 1481 1480 1479 1478 1477 1476 1475 1473 1472 1471
1475 1473 1474 1475 1469 1453 1451 1450 1447 1447 1444 1442 1440 1439 1440 1441 1443 1445 1448 1451 1454 1458 1461 1464 1467 1470 1472 1474 1476 1478 1479 1479 1479 1479 1478 1478 1477 1476 1474 1473 1472 1471 1470 1469
1466 1465 1467 1467 1456 1448 1446 1444 1443 1442 1441 1439 1438 1438 1438 1438 1440 1442 1445 1448 1451 1454 1458 1461 1464 1466 1469 1471 1473 1475 1476 1476 1476 1476 1476 1475 1474 1473 1472 1471 1470 1468 1467 1466
1463 1464 1465 1462 1452 1445 1440 1440 1440 1438 1437 1436 1435 1435 1435 1436 1437 1439 1441 1444 1447 1451 1454 1457 1460 1463 1466 1468 1470 1471 1472 1473 1473 1473 1473 1472 1472 1471 1470 1469 1468 1466 1465 1465
1458 1459 1460 1455 1448 1446 1441 1438 1437 1435 1433 1432 1431 1430 1431 1432 1433 1435 1437 1440 1443 1446 1450 1453 1456 1459 1462 1464 1466 1468 1469 1470 1471 1471 1470 1470 1470 1469 1468 1467 1466 1465 1465 1464